Wind_Speed
45 46 46 46 46 48 49 49 49 46 45 49 51 50 49 47 44 43 47 50 53 57 59 59 58 57 54 52 55 59 60 59 57 57 56 53 52 50 43 40 41 41
49 48 49 48 47 49 50 51 52 48 44 45 47 49 49 46 44 43 43 47 54 57 57 59 62 62 58 53 55 61 62 58 54 56 57 54 52 50 46 43 42 41
53 51 51 50 49 49 51 52 52 51 49 48 47 49 51 49 47 47 45 44 50 55 56 58 61 63 60 54 54 61 63 60 56 57 57 53 51 50 47 45 43 42
57 55 53 52 51 50 50 52 54 53 52 51 47 46 50 50 49 50 49 48 50 54 56 58 60 62 63 57 54 59 63 62 59 59 58 55 52 50 47 44 43 45
61 59 56 54 53 51 51 52 54 54 54 53 49 48 49 51 51 51 51 54 56 56 57 59 60 62 64 61 55 57 61 63 61 60 60 59 56 52 48 45 46 48
62 61 59 57 55 53 52 52 53 53 54 54 54 53 52 52 54 55 53 55 59 59 56 60 63 63 65 64 59 58 61 65 65 62 62 64 61 55 50 49 51 53
62 61 60 59 57 55 54 53 53 53 54 55 55 54 52 52 54 55 54 53 57 59 57 59 63 65 66 66 63 60 61 66 68 65 64 67 66 61 54 52 55 56
60 59 58 58 57 55 54 53 53 53 53 54 55 53 52 53 54 55 55 52 53 58 59 60 63 65 66 66 64 63 63 66 69 67 66 69 68 63 58 56 57 57
59 58 56 55 55 55 54 53 52 53 53 53 54 54 52 53 55 55 55 53 53 57 58 59 64 66 67 67 65 64 65 67 69 68 67 69 68 63 59 58 59 58
58 57 55 54 53 53 52 52 52 52 52 52 53 53 52 53 56 56 56 54 53 56 57 57 63 67 68 68 66 64 63 66 70 69 67 67 66 63 61 60 60 59
58 56 54 52 51 51 50 50 50 51 51 50 51 52 52 53 55 56 56 54 53 55 56 56 61 66 68 69 69 67 64 64 68 70 69 67 65 63 63 62 61 60
57 55 53 51 49 48 48 47 48 49 49 49 49 50 50 52 54 55 55 54 54 56 57 56 59 65 68 68 70 70 67 66 68 69 70 69 66 65 65 63 62 61
57 54 51 49 47 46 45 45 46 47 48 47 48 48 49 51 54 55 55 54 55 57 59 58 60 65 69 70 70 72 71 68 68 69 69 69 67 67 68 65 63 61
57 53 49 47 45 43 43 43 44 46 46 46 47 47 48 51 54 56 56 56 56 57 59 61 61 65 70 72 72 73 73 71 70 70 70 70 69 67 67 67 65 63
56 52 47 45 43 41 41 42 43 44 44 45 46 46 47 51 55 57 57 57 57 58 59 60 61 63 69 73 74 74 75 74 72 72 72 72 72 71 69 70 70 68
54 51 46 43 41 39 39 40 42 43 43 44 45 47 49 53 56 57 58 57 58 60 60 59 60 62 66 72 74 74 76 79 78 75 73 72 72 72 72 72 73 72
52 50 44 41 40 39 38 39 40 41 43 44 45 48 51 54 56 58 58 57 57 59 60 59 60 60 62 67 73 73 75 78 80 79 76 71 69 69 70 72 72 71
49 48 44 40 39 38 37 37 39 41 42 44 47 50 53 55 57 58 58 57 56 57 60 60 60 59 58 61 68 72 74 75 78 79 77 73 70 67 67 69 69 68
45 45 42 39 37 37 36 36 37 40 42 45 48 52 55 56 57 58 57 56 55 56 59 60 61 61 59 58 62 66 71 74 75 75 74 73 70 67 65 66 67 67
41 41 40 38 36 35 35 35 36 39 43 46 51 54 55 56 57 57 56 55 55 56 58 59 60 61 60 59 60 60 63 68 72 73 74 72 69 67 65 65 67 68
39 38 38 37 35 33 33 34 36 39 43 48 53 55 56 56 57 56 55 54 54 55 56 57 58 60 59 60 61 60 58 61 66 71 73 72 70 69 67 65 66 69
40 37 37 36 34 32 32 33 35 40 45 50 55 57 57 57 57 56 55 54 53 53 54 54 55 56 56 58 61 62 61 59 60 65 69 70 70 71 70 68 65 66
41 38 36 35 33 32 32 33 36 40 46 52 56 59 59 58 57 56 54 53 52 52 52 52 52 51 52 54 57 61 62 59 58 62 66 67 66 68 69 67 64 63
42 37 35 34 33 31 32 34 37 42 47 53 58 59 59 58 57 55 54 52 51 50 50 50 49 48 48 48 51 56 59 59 59 62 66 67 66 65 66 65 63 63
43 37 34 33 32 31 32 35 38 43 48 53 58 59 59 58 58 56 54 52 50 49 48 48 46 45 45 45 46 49 53 57 61 63 65 68 68 67 67 65 64 64
43 37 33 32 31 31 33 35 40 44 47 52 57 59 59 59 59 58 57 54 51 49 48 48 46 44 44 44 42 44 49 55 61 63 65 70 73 71 69 67 65 65
Wind_Direction
285 282 279 277 275 274 274 274 272 269 264 261 260 258 256 256 258 251 240 237 236 234 233 234 234 231 230 228 224 221 221 221 222 226 228 225 225 229 232 230 231 233
287 285 282 280 277 275 275 274 275 274 269 262 259 258 256 254 253 249 241 238 238 237 234 232 233 231 227 224 221 220 220 220 221 224 225 223 222 226 229 228 229 232
290 287 285 283 279 276 275 274 274 274 270 265 261 255 250 250 251 249 244 239 238 239 234 228 229 231 226 221 219 220 220 220 220 220 221 220 219 222 226 228 230 232
294 291 288 285 283 279 276 274 273 272 270 268 263 250 243 245 248 246 244 241 237 237 233 225 224 228 227 222 220 221 220 219 218 217 217 217 216 220 224 227 231 234
296 295 292 289 285 282 278 275 273 272 270 268 262 252 246 246 246 244 244 242 239 237 233 227 223 224 225 224 221 220 219 218 217 215 214 214 215 218 222 225 229 235
297 295 293 291 288 284 280 277 274 272 270 268 264 258 255 252 248 246 245 242 240 240 235 229 223 221 223 224 221 220 218 217 217 215 211 212 214 216 219 222 227 232
296 295 293 291 289 285 282 279 275 272 269 267 264 260 257 252 249 247 244 241 239 238 235 230 223 218 219 222 222 221 218 216 216 214 210 211 213 215 217 220 225 230
296 294 293 291 288 286 282 279 276 272 268 266 263 260 255 250 247 245 243 241 237 233 231 228 223 217 216 218 221 221 218 216 215 212 208 209 212 216 218 219 223 227
297 295 293 290 288 285 282 279 276 272 268 264 261 258 254 249 246 244 242 240 235 232 230 227 221 218 216 216 218 219 218 217 214 210 207 209 213 216 217 219 221 224
298 295 293 290 287 284 282 279 275 272 268 263 259 256 252 247 244 242 240 238 234 231 230 227 221 218 216 214 215 216 216 216 214 210 208 210 214 215 215 216 219 222
299 296 294 291 287 284 281 278 274 271 267 262 257 254 250 245 242 240 238 236 233 230 229 227 222 219 218 215 214 215 215 214 213 212 210 211 215 216 213 214 218 221
300 297 294 291 287 283 280 277 273 270 266 262 256 252 247 242 238 236 234 232 230 228 227 226 223 220 220 218 216 216 216 215 214 214 213 214 215 216 213 212 216 220
300 298 295 291 287 283 278 275 272 268 265 260 255 250 244 238 233 231 229 227 227 226 224 223 222 221 220 220 219 217 216 214 213 214 215 215 214 214 213 212 215 219
299 298 295 291 287 282 278 274 270 267 263 258 253 248 241 235 229 226 225 224 223 223 222 221 221 221 220 220 221 220 217 215 213 214 215 214 212 213 214 213 215 218
298 297 295 291 286 282 277 273 270 266 262 256 251 244 236 230 227 224 223 222 220 219 219 220 220 219 219 219 220 221 219 217 215 214 214 215 214 215 217 216 216 218
297 296 295 290 285 280 276 272 268 265 260 253 247 239 231 227 225 224 223 222 220 218 218 219 220 219 219 218 218 220 220 219 216 213 212 214 216 217 219 219 219 219
297 295 294 290 283 278 273 270 266 262 256 249 242 234 228 225 223 224 224 223 221 218 217 218 219 220 220 219 217 219 220 219 218 214 212 214 218 219 219 220 221 221
297 294 293 290 283 276 271 267 263 258 251 244 237 231 227 223 222 223 224 224 222 219 218 218 219 220 221 220 219 220 221 220 218 215 214 215 217 218 219 220 223 225
298 294 292 289 283 275 268 264 258 253 246 239 233 229 225 222 221 222 222 223 223 221 219 219 219 220 220 220 221 222 223 223 219 215 213 214 215 215 218 222 225 226
301 296 293 289 282 273 265 259 254 248 241 235 230 228 224 222 220 220 221 222 224 223 222 221 221 221 221 221 223 223 222 222 221 216 214 214 215 216 219 222 225 227
305 299 294 288 281 272 263 255 248 243 236 231 229 227 224 220 219 218 219 222 223 224 224 224 224 224 224 225 227 226 223 220 219 218 217 218 220 221 221 222 225 226
305 301 295 289 282 273 261 250 244 238 232 228 228 227 224 220 218 218 220 221 223 225 227 228 229 229 229 230 229 229 227 223 219 218 218 219 221 223 223 224 225 225
305 303 297 289 282 273 261 248 239 234 230 227 228 229 225 221 219 219 219 220 222 226 229 231 233 233 232 231 230 229 228 225 222 219 217 216 218 220 222 223 224 224
307 304 298 290 282 272 261 248 237 231 229 227 229 231 228 224 220 219 218 220 222 226 230 233 235 235 232 229 228 229 227 226 225 221 217 216 217 219 221 222 222 223
307 304 298 292 283 271 259 247 237 231 229 227 229 232 231 226 222 219 217 218 221 225 229 232 234 234 231 226 226 228 227 225 224 223 219 217 219 221 221 220 221 223
307 304 298 292 284 270 257 245 236 231 229 228 228 231 232 230 224 220 218 219 220 223 227 229 230 231 231 227 225 226 226 223 222 222 219 217 219 221 220 219 221 223
Height
10825 10824 10822 10820 10819 10817 10817 10816 10816 10818 10820 10820 10818 10817 10815 10815 10818 10820 10823 10824 10824 10823 10826 10829 10832 10834 10836 10840 10843 10844 10844 10846 10851 10854 10856 10860 10863 10864 10868 10871 10872 10874
10816 10814 10812 10811 10810 10809 10808 10807 10806 10808 10811 10811 10811 10810 10808 10807 10808 10809 10812 10815 10815 10815 10819 10822 10823 10824 10828 10831 10833 10835 10837 10840 10846 10849 10850 10854 10856 10859 10863 10866 10868 10870
10806 10805 10803 10802 10801 10800 10798 10797 10796 10797 10799 10800 10802 10802 10799 10797 10798 10799 10802 10806 10807 10807 10809 10813 10815 10815 10818 10822 10824 10826 10830 10834 10839 10842 10844 10847 10851 10854 10857 10860 10863 10865
10794 10794 10794 10792 10791 10791 10789 10787 10786 10786 10787 10788 10789 10790 10789 10788 10789 10790 10792 10795 10796 10796 10798 10802 10807 10808 10809 10813 10817 10819 10823 10828 10832 10836 10840 10842 10846 10850 10853 10856 10858 10860
10782 10782 10781 10781 10781 10780 10779 10777 10775 10774 10775 10776 10778 10779 10780 10780 10780 10781 10783 10784 10783 10784 10788 10792 10797 10801 10803 10807 10811 10814 10817 10822 10826 10831 10835 10837 10840 10845 10849 10853 10855 10857
10773 10770 10769 10768 10769 10768 10767 10766 10765 10764 10764 10764 10766 10768 10770 10771 10771 10771 10773 10774 10773 10774 10780 10785 10789 10794 10797 10801 10806 10809 10812 10816 10820 10825 10829 10832 10836 10841 10845 10849 10851 10853
10764 10761 10758 10756 10755 10755 10755 10754 10754 10754 10753 10753 10754 10757 10760 10761 10761 10760 10762 10764 10765 10767 10772 10777 10781 10786 10790 10794 10799 10803 10807 10811 10815 10819 10824 10827 10832 10835 10839 10843 10846 10848
10756 10752 10749 10746 10744 10743 10743 10742 10742 10742 10742 10742 10743 10746 10749 10751 10751 10751 10752 10755 10757 10759 10763 10769 10775 10780 10783 10787 10791 10795 10800 10804 10808 10813 10818 10822 10826 10829 10833 10838 10841 10844
10746 10743 10740 10737 10734 10732 10731 10730 10730 10730 10731 10731 10732 10734 10738 10741 10742 10742 10743 10746 10748 10750 10755 10761 10767 10772 10776 10780 10783 10787 10792 10797 10802 10807 10812 10816 10821 10824 10828 10833 10836 10839
10736 10734 10731 10728 10725 10723 10721 10719 10719 10719 10720 10721 10722 10723 10727 10730 10732 10733 10735 10737 10739 10742 10747 10753 10758 10763 10767 10772 10776 10781 10787 10792 10797 10801 10806 10811 10815 10819 10823 10828 10831 10834
10726 10724 10722 10719 10716 10714 10711 10710 10709 10708 10709 10710 10711 10713 10717 10720 10723 10725 10727 10729 10731 10735 10739 10744 10749 10753 10758 10763 10768 10774 10781 10787 10791 10796 10801 10806 10810 10814 10819 10823 10826 10829
10715 10714 10712 10710 10708 10705 10703 10701 10700 10699 10700 10701 10702 10704 10708 10711 10714 10716 10719 10721 10724 10728 10732 10736 10740 10744 10750 10755 10761 10767 10774 10780 10785 10790 10795 10800 10805 10809 10814 10819 10822 10824
10705 10704 10702 10700 10699 10697 10694 10692 10692 10691 10691 10692 10693 10696 10699 10702 10705 10708 10711 10714 10717 10721 10725 10728 10732 10737 10742 10747 10754 10760 10766 10772 10778 10784 10789 10795 10799 10803 10809 10814 10818 10821
10695 10694 10693 10691 10690 10688 10686 10684 10683 10683 10684 10684 10686 10688 10692 10695 10697 10700 10703 10707 10711 10714 10718 10722 10725 10729 10734 10740 10746 10752 10759 10765 10772 10778 10783 10788 10793 10798 10803 10809 10814 10817
10686 10686 10684 10683 10682 10681 10679 10677 10675 10675 10676 10678 10679 10682 10685 10687 10689 10692 10696 10701 10705 10708 10711 10715 10719 10722 10727 10733 10738 10744 10751 10758 10764 10770 10776 10782 10787 10792 10797 10803 10808 10812
10678 10677 10677 10675 10674 10673 10672 10670 10669 10668 10669 10671 10672 10675 10677 10680 10682 10685 10689 10693 10698 10702 10706 10710 10713 10716 10720 10725 10731 10737 10743 10748 10754 10762 10769 10775 10781 10786 10791 10796 10801 10806
10671 10670 10670 10668 10667 10666 10665 10664 10663 10662 10663 10665 10666 10668 10671 10674 10677 10680 10683 10687 10692 10697 10701 10704 10707 10710 10714 10720 10725 10730 10734 10739 10746 10753 10762 10770 10776 10781 10785 10789 10794 10799
10664 10662 10663 10662 10661 10660 10659 10658 10657 10657 10657 10658 10660 10662 10665 10669 10672 10675 10678 10683 10687 10692 10696 10699 10702 10706 10710 10716 10721 10724 10728 10733 10740 10748 10757 10765 10769 10773 10777 10781 10786 10791
10658 10656 10656 10656 10655 10654 10653 10652 10652 10652 10652 10653 10654 10656 10659 10664 10667 10670 10675 10679 10683 10688 10691 10694 10698 10702 10707 10712 10715 10718 10723 10728 10736 10745 10752 10756 10760 10765 10770 10774 10778 10783
10653 10651 10650 10650 10649 10648 10647 10647 10647 10647 10648 10648 10649 10651 10655 10659 10663 10667 10671 10674 10679 10683 10686 10690 10694 10698 10703 10707 10709 10712 10716 10722 10731 10739 10743 10747 10752 10757 10762 10766 10770 10775
10649 10646 10645 10644 10643 10643 10642 10642 10642 10643 10644 10644 10644 10646 10650 10655 10658 10663 10667 10671 10675 10678 10682 10686 10690 10693 10698 10701 10703 10707 10712 10718 10725 10731 10736 10742 10747 10750 10755 10759 10763 10768
10643 10641 10640 10638 10637 10637 10636 10636 10637 10638 10640 10640 10640 10642 10646 10651 10655 10659 10663 10668 10671 10674 10678 10682 10685 10689 10693 10696 10698 10702 10707 10713 10719 10724 10730 10736 10740 10744 10749 10754 10758 10764
10637 10635 10634 10632 10631 10631 10631 10631 10632 10634 10635 10636 10636 10637 10642 10647 10651 10656 10660 10664 10668 10671 10674 10677 10680 10684 10688 10691 10693 10697 10702 10708 10713 10717 10722 10727 10732 10737 10743 10748 10753 10758
10631 10629 10628 10626 10625 10625 10625 10626 10627 10628 10630 10631 10632 10633 10637 10643 10647 10652 10657 10661 10664 10667 10670 10672 10675 10679 10682 10686 10689 10692 10697 10703 10706 10710 10716 10722 10727 10732 10737 10741 10746 10751
10626 10624 10621 10620 10619 10619 10619 10620 10621 10623 10625 10627 10628 10629 10633 10638 10643 10648 10652 10656 10659 10663 10665 10668 10670 10674 10677 10682 10685 10689 10694 10698 10700 10704 10712 10718 10722 10725 10729 10735 10740 10744
10619 10618 10616 10614 10613 10613 10613 10614 10615 10617 10620 10623 10625 10626 10628 10632 10637 10642 10647 10651 10655 10658 10660 10662 10666 10670 10673 10677 10682 10685 10688 10690 10694 10700 10707 10712 10715 10718 10722 10729 10734 10738